Overview Statistics Trail Chart Weather Telemetry Raw packets
 

This is the latest recevied weather packets stored in our database for station/object W5LND-10. If no packets are shown the sender has not sent any weather packets the latest 10 day(s).

<< 8 9 10 11 12 13 14 >>
Time Temp. Humidity Pressure Rain* Wind** Luminosity Snow
1788550825 37.22° C 31% 1004.9 hPa 0 mm - 294 W/m² -
1788550525 37.22° C 32% 1005 hPa 0 mm - 285 W/m² -
1788550225 37.78° C 31% 1005 hPa 0 mm - 251 W/m² -
1788549925 37.78° C 31% 1005.1 hPa 0 mm - 241 W/m² -
1788549625 38.33° C 30% 1005.2 hPa 0 mm - 243 W/m² -
1788549325 38.89° C 30% 1005.2 hPa 0 mm - 294 W/m² -
1788549025 38.89° C 30% 1005.3 hPa 0 mm - 1079 W/m² -
1788548725 38.89° C 31% 1005.3 hPa 0 mm - 255 W/m² -
1788548425 38.89° C 31% 1005.4 hPa 0 mm - 1051 W/m² -
1788548125 38.89° C 31% 1005.4 hPa 0 mm - 1020 W/m² -
1788547825 38.33° C 32% 1005.4 hPa 0 mm - 990 W/m² -
1788547525 38.33° C 33% 1005.7 hPa 0 mm - 983 W/m² -
1788547225 37.78° C 33% 1005.8 hPa 0 mm - 984 W/m² -
1788546925 37.78° C 34% 1005.7 hPa 0 mm - 965 W/m² -
1788546625 37.78° C 34% 1005.9 hPa 0 mm - 949 W/m² -
1788546325 37.78° C 35% 1006 hPa 0 mm - 962 W/m² -
1788546025 37.78° C 36% 1006.1 hPa 0 mm - 960 W/m² -
1788545725 37.78° C 36% 1006.2 hPa 0 mm - 962 W/m² -
1788545425 37.22° C 36% 1006.2 hPa 0 mm - 951 W/m² -
1788545125 37.22° C 37% 1006.3 hPa 0 mm - 947 W/m² -
1788544825 36.67° C 39% 1006.4 hPa 0 mm - 949 W/m² -
1788544525 36.67° C 39% 1006.6 hPa 0 mm - 947 W/m² -
1788544225 36.67° C 39% 1006.6 hPa 0 mm - 949 W/m² -
1788543925 36.11° C 41% 1006.7 hPa 0 mm - 937 W/m² -
1788543625 35.56° C 42% 1006.9 hPa 0 mm - 939 W/m² -

* Rain latest hour (hover to see other rain measurements)
** Current wind speed in m/s (hover to see current wind gust speed)